This demonstration page uses our WeatherBlox Daily Observations layout. Learn more.

Left ArrowRight Arrow

41.12389, -100.76542

Hourly Observations for November 17, 2016

Temp ( °F °C ) Dew Point ( °F °C ) Humidity (%) Winds ( mph kmh ) Pressure ( in mb ) Visibility ( mi km ) Precip ( " mm )
12:53 am 00:53 Clear 47 8.3 34 1.1 61 61 NNE 16 26 29.54 1000 10 16 0.00 0.00
1:53 am 01:53 Clear 47 8.3 34 1.1 61 61 NNE 16 26 29.55 1001 10 16 0.00 0.00
2:53 am 02:53 Clear 45 7.2 34 1.1 66 66 NNE 23 37 29.56 1001 10 16 0.00 0.00
3:53 am 03:53 Clear 44 6.7 34 1.1 68 68 NNE 21 33 29.57 1001 10 16 0.00 0.00
4:53 am 04:53 Clear 42 5.6 33 0.6 71 71 NNE 16 26 29.61 1003 10 16 0.00 0.00
5:53 am 05:53 Clear 41 5 32 0 70 70 VRB 7 11 29.64 1004 10 16 0.00 0.00
6:53 am 06:53 Clear 41 5 32 0 70 70 VRB 6 9 29.66 1004 10 16 0.00 0.00
7:53 am 07:53 Sunny 40 4.4 31 -0.6 70 70 N 8 13 29.66 1004 10 16 0.00 0.00
8:53 am 08:53 Sunny 41 5 30 -1.1 65 65 NNE 13 20 29.67 1005 10 16 0.00 0.00
9:53 am 09:53 Mostly Sunny 41 5 29 -1.7 62 62 NNE 14 22 29.68 1005 10 16 0.00 0.00
10:53 am 10:53 Sunny 42 5.6 29 -1.7 60 60 NNE 16 26 29.67 1005 10 16 0.00 0.00
11:41 am 11:41 Mostly Cloudy 42 5.6 30 -1.1 62 62 N 8 13 29.74 1007 10 16 0.00 0.00
11:53 am 11:53 Cloudy 42 5.6 30 -1.1 62 62 NNE 12 19 29.69 1005 10 16 0.00 0.00
12:53 pm 12:53 Cloudy 41 5 30 -1.1 65 65 NNE 14 22 29.65 1004 10 16 0.00 0.00
1:53 pm 13:53 Cloudy 42 5.6 29 -1.7 60 60 N 16 26 29.66 1004 10 16 0.00 0.00
2:53 pm 14:53 Cloudy 40 4.4 29 -1.7 65 65 N 16 26 29.66 1005 10 16 0.00 0.00
3:53 pm 15:53 Cloudy 39 3.9 29 -1.7 67 67 N 20 31 29.69 1006 10 16 0.00 0.00
4:53 pm 16:53 Cloudy 38 3.3 29 -1.7 70 70 N 15 24 29.71 1006 10 16 0.00 0.00
5:53 pm 17:53 Cloudy 38 3.3 30 -1.1 73 73 N 10 17 29.80 1009 10 16 0.00 0.00
6:53 pm 18:53 Cloudy with Light Rain 37 2.8 31 -0.6 79 79 NE 12 19 29.86 1011 6 10 0.00 0.03
7:12 pm 19:12 Cloudy with Light Snow 36 2 30 -1 81 81 N 14 22 29.85 1011 2 3 0.00 0.00
7:28 pm 19:28 Cloudy with Light Snow 34 1 32 0 93 93 N 13 20 29.85 1011 4 6 0.00 0.00
7:40 pm 19:40 Cloudy with Light Snow 34 1 32 0 93 93 NNE 10 17 29.85 1011 3 5 0.00 0.00
7:53 pm 19:53 Cloudy with Light Snow 34 1.1 32 0 92 92 N 9 15 29.83 1010 3 5 0.06 1.52
8:25 pm 20:25 Cloudy with Light Snow 34 1.1 31 -0.6 89 89 N 12 19 29.85 1011 3 4 0.01 0.25
8:53 pm 20:53 Cloudy with Light Snow 34 1.1 31 -0.6 89 89 N 16 26 29.83 1010 3 5 0.04 1.02
9:04 pm 21:04 Cloudy with Light Snow 34 1 30 -1 87 87 N 15 24 29.88 1012 3 4 0.00 0.00
9:17 pm 21:17 Cloudy with Light Snow 34 1.1 31 -0.6 89 89 N 17 28 29.85 1011 4 6 0.01 0.25
9:26 pm 21:26 Cloudy with Light Snow 34 1 30 -1 87 87 N 17 28 29.85 1011 5 8 0.00 0.00
9:38 pm 21:38 Cloudy with Light Snow 34 1 30 -1 87 87 NNW 10 17 29.88 1012 7 11 0.00 0.00
9:53 pm 21:53 Cloudy with Light Snow 34 1.1 31 -0.6 89 89 N 17 28 29.84 1011 5 8 0.02 0.51
10:00 pm 22:00 Cloudy with Light Wintry Mix 34 1 30 -1 87 87 N 21 33 29.88 1012 8 13 0.00 0.00
10:45 pm 22:45 Windy with Snow Likely 32 0 29 -1.7 88 88 NNW 22 35 29.94 1014 2 3 0.08 2.03
10:53 pm 22:53 Cloudy with Light Snow 32 0 29 -1.7 88 88 NNW 17 28 29.91 1013 1 2 0.10 2.54
11:09 pm 23:09 Mostly Cloudy with Light Snow 32 0 28 -2.2 85 85 N 22 35 29.97 1015 1 1 0.04 1.02
11:27 pm 23:27 Mostly Cloudy with Snow 31 -0.6 29 -1.7 92 92 NNW 13 20 29.97 1015 1 1 0.10 2.54
11:53 pm 23:53 Mostly Cloudy with Snow 31 -0.6 29 -1.7 92 92 NNW 14 22 29.95 1014 1 1 0.17 4.32

Powered by AerisWeather